User: anonymous   Login
Location: Pian di Sc�
(43.6333°N, 11.5500°E)
Time: 16:02:55
(UTC+00:00)
Language:

H-2A R/B - Orbit

View from above orbital plane
View from above orbital plane
View from above satellite
View from above satellite

Ground track
Ground track

The orbit data is extracted from the following two-line orbital elements,

1 38341U 12025E   20292.90042665 +.00000250 +00000-0 +36789-4 0  9990
2 38341 098.5149 096.0262 0055220 194.2153 165.7509 14.84087108455672
Epoch (UTC): 18 October 2020 21:36:36
Eccentricity: 0.0055220
inclination: 98.5149°
perigee height: 578 km
apogee height: 655 km
right ascension of ascending node: 96.0262°
argument of perigee: 194.2153°
revolutions per day: 14.84087108
mean anomaly at epoch: 165.7509°
orbit number at epoch: 45567

The dashed part of the orbit path shows where the satellite is in the earth's shadow,  

DLR